Miscellaneous Local Product
Issued by NWS North Platte, NE

Home | Current Version | Previous Version | Text Only | Print | Product List | Glossary On
Versions: 1 2 3 4 5 6 7 8 9 10 11 12 13 14 15 16 17 18 19 20 21 22 23 24 25 26 27 28 29 30 31 32 33 34 35 36 37 38 39 40 41 42 43 44 45 46 47 48 49 50
000
AXUS43 KLBF 291310
MISLBF


WESTERN AND NORTH CENTRAL NEBRASKA HOURLY WEATHER ROUNDUP
NATIONAL WEATHER SERVICE NORTH PLATTE NE
800 AM CDT TUE JUL 29 2014

***STATIONS NOT REPORTING VARIABLES SUCH AS SKY/WEATHER OR
PRESSURE ARE PROVIDED BY THE NEBRASKA DEPARTMENT OF
ROADS...RAWS...AND APRS NETWORKS...AND ARE NOT UNDER
NATIONAL WEATHER SERVICE QUALITY CONTROL***

...OBSERVATIONS IN AND NEAR THE EASTERN PANHANDLE OF NEBRASKA...

CITY           SKY/WX    TMP DP  RH WIND       PRES   REMARKS
PINE RIDGE     CLOUDY    63  57  81 NE5       30.27R
CHADRON        CLOUDY    62  53  72 N10       30.28R
ALLIANCE       MOSUNNY   59  56  89 SE12      30.25S
SIDNEY         CLOUDY    57  55  93 E8        30.25R FOG
WHITECLAY        N/A     62  55  75 CALM        N/A
RUSHVILLE        N/A     60  57  89 E8          N/A
GORDON           N/A     66  63  89 E8          N/A
CRESCENT LAKE    N/A     59  56  89 E9          N/A
LISCO            N/A     64  58  80 E15         N/A
BIG SPRINGS      N/A     57  55  95 E3          N/A
$$

...OBSERVATIONS IN NORTH CENTRAL NEBRASKA...

CITY           SKY/WX    TMP DP  RH WIND       PRES   REMARKS
VALENTINE      MOSUNNY   59  54  83 SW5       30.25S
THEDFORD       MOSUNNY   62  58  87 S3        30.26S
AINSWORTH      PTSUNNY   59  57  95 S6        30.25S
O`NEILL        SUNNY     59  54  83 CALM      30.25R
ORD            MOSUNNY   61  58  90 CALM      30.23S
BROKEN BOW     CLOUDY    62  59  90 SE3       30.24S
BROWNLEE         N/A     62  59  91 E5          N/A
SPRINGVIEW       N/A     60  56  86 CALM        N/A
DUNNING          N/A     65  63  90 CALM        N/A
ROSE             N/A     63  62  97 SE3         N/A
NEWPORT          N/A     62  57  86 CALM        N/A
SARGENT          N/A     63  58  84 CALM        N/A
COMSTOCK         N/A     67  60  79 SE5         N/A
CHAMBERS         N/A     66  61  85 CALM        N/A
EWING            N/A     60  57  91 CALM        N/A
$$

...OBSERVATIONS IN SOUTHWEST NEBRASKA AND FAR NORTHEAST COLORADO...

CITY           SKY/WX    TMP DP  RH WIND       PRES   REMARKS
WRAY             N/A     64  58  81 E5        30.22R
HOLYOKE        FAIR      61  57  88 E7        30.23R FOG
IMPERIAL       SUNNY     59  55  87 E9        30.22R
OGALLALA       MOSUNNY   58  55  91 E12       30.24R
NORTH PLATTE   MOSUNNY   59  56  89 E8        30.25R
MCCOOK         SUNNY     60  56  86 E8        30.23R
LEXINGTON      MOSUNNY   60  57  91 E5        30.25S
PAXTON           N/A     58  56  93 CALM        N/A
SUTHERLAND       N/A     56  54  92 E8          N/A
BRADY            N/A     58  55  90 CALM        N/A
CALLAWAY         N/A     57  56  96 E6          N/A
$$

...SOME WEATHER OBSERVATIONS FROM AROUND THE REGION...

CITY           SKY/WX    TMP DP  RH WIND       PRES   REMARKS
DENVER         MOSUNNY   63  57  81 W8        30.25R
LARAMIE        PTSUNNY   57  51  80 MISG      30.36S
CHEYENNE       MOSUNNY   59  52  77 NW5       30.31R
SCOTTSBLUFF    PTSUNNY   60  58  92 E12       30.25R
RAPID CITY     PTSUNNY   61  54  77 CALM      30.27S
PIERRE         SUNNY     56  54  93 SW5       30.23R
WINNER         FAIR      60  52  74 CALM      30.24S
SIOUX FALLS    MOSUNNY   57  53  86 CALM      30.23R
OMAHA          MOSUNNY   62  57  83 N6        30.21S
GRAND ISLAND   CLOUDY    64  59  83 CALM      30.24S
KANSAS CITY    MOSUNNY   64  59  83 N3        30.18S
WICHITA        MOSUNNY   69  59  70 E7        30.20R
HAYS           SUNNY     64  54  68 SE12      30.21S
LIBERAL        PTSUNNY   70  59  68 S15       30.24R
GOODLAND       MOSUNNY   62  60  93 S7        30.22R
$$



USA.gov is the U.S. government's official web portal to all federal, state and local government web resources and services.